RH
54 54 57 59 59 60 63 67 70 70 71 77 85 88 87 86 85 84 84 84 83 81 79 76 74 72 69 68 67 67 66 66 66 66 65 64 66 67 69 71 76 84 84 77 74 72 71 69 68 67 66 63 59 54 50 48 46 45 44 44 45 48 55
52 53 57 59 58 62 67 70 73 72 73 80 88 91 90 89 88 87 87 87 87 85 83 82 79 77 74 71 69 68 67 66 65 66 67 66 66 69 70 71 74 80 83 80 74 70 68 64 61 61 61 60 60 56 51 48 46 43 43 43 42 43 45
53 56 59 59 61 66 70 72 75 77 77 81 89 93 94 93 92 91 91 92 93 92 90 88 86 84 82 79 76 72 69 68 66 65 67 66 65 67 67 66 68 74 79 79 73 68 67 65 61 59 58 58 57 54 52 51 47 44 43 41 40 40 40
56 58 59 61 65 69 72 75 79 81 83 86 92 97 97 98 97 95 95 95 95 95 94 93 92 91 90 87 85 82 77 74 71 68 67 67 66 66 67 67 68 72 76 80 79 75 71 71 68 63 60 59 57 57 56 54 51 49 45 41 39 39 38
59 59 61 65 69 73 76 79 84 87 90 94 98 100 99 99 99 98 98 98 97 98 97 97 97 95 95 94 91 89 86 82 78 75 72 71 69 69 70 70 69 69 71 76 82 82 77 75 75 73 70 67 65 65 64 60 57 53 48 43 40 38 37
59 61 65 70 73 76 78 83 91 95 97 99 100 100 99 99 99 99 100 99 99 100 100 99 98 97 97 99 97 95 93 89 85 81 78 75 74 72 72 72 72 71 71 73 76 76 72 71 72 73 74 73 71 71 69 66 61 56 54 51 47 42 38
63 65 70 74 76 78 83 90 98 100 100 100 100 100 100 100 100 100 100 100 100 100 101 100 97 96 96 98 99 98 96 95 92 88 84 81 78 76 76 77 77 77 77 78 77 75 72 69 66 67 69 69 68 69 69 68 68 68 64 58 52 46 39
66 70 74 77 78 82 91 98 101 101 100 101 100 100 101 100 100 100 100 100 100 100 101 100 97 94 95 96 97 97 97 97 96 94 91 87 84 82 81 81 82 83 85 86 87 86 82 77 73 69 67 65 64 66 67 67 70 72 66 58 56 54 51
70 75 77 79 81 87 95 101 101 100 100 101 100 101 100 100 100 101 100 100 100 100 100 100 97 93 91 91 92 94 97 98 99 98 96 92 90 88 86 85 86 88 91 94 97 97 93 89 86 79 72 69 66 66 65 61 62 65 65 64 64 64 60
76 79 78 81 85 88 95 100 101 100 101 100 100 101 101 100 100 100 100 100 100 100 101 100 98 94 91 92 93 95 98 100 100 100 98 96 94 92 90 90 90 92 93 95 97 96 94 94 92 84 77 73 68 64 62 59 59 62 62 62 67 67 56
80 80 81 84 87 90 97 101 101 101 101 100 100 100 100 100 100 100 100 100 100 100 100 100 100 99 98 99 98 98 100 100 100 100 100 100 99 97 94 92 91 91 91 93 95 93 92 93 91 84 77 74 70 66 63 61 58 59 58 61 71 71 59
82 82 84 87 90 95 98 99 99 101 101 100 100 100 100 100 100 100 100 100 100 100 99 100 100 100 100 100 100 100 100 100 100 100 100 100 100 100 99 97 94 91 89 90 91 91 90 89 87 85 80 76 72 68 66 64 60 59 59 62 70 75 74
84 85 88 92 96 99 99 96 96 100 102 101 99 100 100 100 100 100 100 100 100 100 100 100 100 100 100 100 100 100 100 99 99 99 100 101 100 100 100 100 99 97 93 90 87 86 86 82 80 83 83 79 76 73 69 67 64 63 61 61 69 82 86
87 88 91 98 101 102 100 94 90 95 101 101 100 100 100 100 100 100 100 100 100 100 100 100 100 100 100 100 100 100 100 100 99 99 99 100 100 100 100 100 100 100 100 97 92 88 84 79 77 77 78 78 80 82 81 76 69 64 64 70 79 88 90
89 91 96 101 102 103 100 91 88 96 101 100 100 100 100 100 100 100 100 100 100 99 99 100 100 100 100 100 100 100 99 100 100 100 100 100 100 100 100 100 99 98 99 99 98 96 91 86 83 78 76 75 76 81 85 84 80 75 76 83 89 91 91
95 98 101 101 100 102 100 92 92 100 102 100 100 100 100 100 100 100 100 100 98 97 98 99 98 99 100 100 100 100 100 100 100 100 100 100 100 100 100 98 93 93 97 97 98 100 98 95 92 89 86 82 79 78 76 76 82 86 86 87 89 91 90
100 101 103 102 100 101 101 93 89 92 96 99 101 100 100 100 100 100 100 99 99 99 99 98 93 93 98 100 100 100 99 100 101 100 100 100 100 100 101 97 90 91 97 99 99 100 100 99 99 97 96 94 92 89 81 76 80 83 84 87 91 94 92
102 101 102 101 99 100 101 93 83 82 91 100 101 99 100 100 100 101 99 99 99 95 94 97 91 83 86 93 99 101 100 99 99 99 99 101 100 99 101 98 94 95 97 98 100 100 99 100 101 100 100 99 99 98 93 88 83 76 77 87 93 93 89
103 102 101 100 99 100 102 98 88 83 91 100 100 99 101 100 99 100 99 100 99 91 89 98 96 82 76 80 86 93 97 98 99 100 101 99 99 101 100 95 95 100 99 98 100 99 97 98 97 98 101 100 100 98 96 94 88 75 73 83 90 89 88
102 101 100 100 101 100 99 98 91 83 85 95 100 100 100 99 99 101 100 100 100 96 94 97 96 88 83 80 78 80 86 90 95 98 100 99 100 101 94 87 92 98 99 99 100 99 98 96 93 94 98 100 100 99 95 95 95 88 84 87 90 92 94
100 101 101 100 100 97 92 91 90 85 85 93 101 100 99 100 101 100 99 97 98 100 100 98 94 90 91 93 91 89 90 92 94 94 94 97 100 97 89 85 90 95 96 99 101 100 100 100 97 96 97 98 100 101 98 96 94 93 95 98 98 98 98
101 102 101 99 97 93 89 87 88 89 89 94 100 101 99 100 100 98 97 97 98 99 100 100 94 88 91 99 100 97 97 99 98 95 92 93 95 95 95 95 95 96 98 100 101 99 99 101 100 99 98 97 97 97 99 100 96 90 89 95 99 101 101
103 103 102 100 96 90 87 87 90 93 94 96 99 100 98 96 96 97 98 99 100 100 100 100 93 86 89 98 99 96 95 96 97 96 97 97 93 92 96 98 98 100 100 100 100 100 100 100 100 100 100 99 95 92 92 96 98 95 90 88 91 94 97
103 103 102 101 98 93 90 90 92 95 98 99 100 100 99 95 94 96 98 99 100 100 99 99 95 90 93 98 97 96 96 97 97 98 100 97 89 84 84 86 91 98 101 99 100 100 99 99 99 99 99 97 93 90 90 91 94 96 95 92 89 88 89
102 102 100 100 101 96 90 89 92 96 99 101 100 97 94 93 94 95 96 97 99 98 97 95 95 96 97 97 97 98 99 98 96 94 92 90 86 83 81 81 86 95 100 100 100 100 100 99 98 97 95 94 92 92 95 97 97 97 97 95 92 90 85
101 101 100 100 101 96 90 89 93 98 100 99 94 85 80 84 92 95 95 97 99 97 94 93 94 96 97 98 99 100 97 92 88 85 86 91 94 92 89 87 87 92 98 100 100 100 99 98 97 97 95 96 96 98 99 99 98 98 97 95 94 95 94
100 100 100 101 100 97 94 93 95 99 100 96 86 77 76 82 85 87 94 100 95 86 85 90 95 97 98 99 99 96 91 89 90 91 93 97 99 98 95 91 87 89 96 100 100 100 99 97 98 99 98 98 99 100 100 99 99 99 99 97 97 98 101
102 100 99 101 101 100 98 98 99 100 96 88 80 79 86 91 90 90 97 96 86 81 87 96 99 100 100 99 97 94 92 93 96 98 98 99 100 100 98 96 92 91 97 100 99 100 100 99 99 100 100 100 100 100 100 100 100 100 100 99 100 100 99
99 95 92 95 98 100 101 100 98 94 90 87 88 92 97 98 97 99 99 91 85 91 98 100 100 100 100 99 97 96 96 96 96 97 98 99 100 100 100 99 97 96 97 98 98 99 100 100 100 100 100 100 100 100 100 100 100 100 100 99 100 100 99
95 88 87 90 92 97 101 98 94 92 92 94 96 97 96 95 96 99 98 92 94 100 101 99 100 101 99 97 98 98 99 99 99 98 97 97 99 99 99 100 99 99 99 99 98 99 100 100 100 100 100 100 100 100 100 100 99 100 100 100 100 100 99
99 94 95 96 96 98 100 98 96 96 96 96 95 95 97 98 98 98 96 95 98 101 99 97 99 100 99 98 98 100 100 100 100 100 98 98 99 99 100 100 100 100 100 100 100 99 99 99 100 100 100 100 100 100 100 100 99 99 100 100 100 99 97
100 100 100 99 99 100 98 96 97 96 95 95 96 98 99 100 99 99 99 99 100 99 98 97 98 99 100 100 99 100 100 100 100 101 100 98 98 98 99 100 100 99 100 101 101 100 100 99 99 99 99 99 100 100 100 100 99 99 99 100 100 100 97
100 101 100 100 101 101 99 98 98 98 97 98 98 99 100 100 100 100 100 99 97 96 98 100 100 100 100 100 100 100 100 100 101 100 95 92 93 96 99 100 100 100 100 100 101 101 101 101 100 99 98 97 97 98 99 99 99 98 99 99 100 100 99
100 99 99 98 97 97 100 101 99 98 99 100 99 100 100 99 100 100 99 98 98 99 101 101 100 100 100 100 100 99 98 99 101 99 94 88 86 91 97 100 100 100 100 100 101 101 101 101 101 101 100 98 97 97 98 99 99 99 100 100 99 99 100
97 94 92 91 90 91 96 100 100 99 100 100 100 100 100 99 100 100 99 99 99 100 101 100 100 100 100 99 99 99 98 99 100 99 96 90 83 83 91 99 101 100 99 100 100 100 101 100 100 101 101 100 100 99 99 100 100 99 100 100 99 99 100
95 90 86 87 92 96 99 100 100 99 100 100 100 99 97 99 101 101 100 101 101 100 100 100 100 100 100 99 100 100 99 100 101 100 97 92 85 81 86 95 100 98 98 99 100 101 101 101 101 101 101 101 100 100 100 100 100 100 100 100 100 100 99
Wind_Speed
19 19 19 19 19 19 19 19 19 18 18 17 18 18 18 18 18 18 19 19 19 19 19 20 21 23 24 23 23 23 23 23 23 23 22 22 21 21 20 19 17 13 10 12 15 17 19 19 20 20 19 18 19 21 21 21 21 20 20 19 17 16 14
20 19 19 20 20 20 20 20 20 19 18 17 17 17 17 17 17 18 19 19 20 20 20 20 22 23 24 23 24 24 25 25 24 24 24 23 22 22 21 20 20 17 12 12 15 16 16 18 21 23 21 18 18 21 22 23 24 23 22 22 21 20 19
20 19 20 20 21 21 20 21 20 20 19 19 19 19 18 18 18 19 19 19 20 20 19 20 22 24 24 23 24 25 26 26 26 26 25 25 24 23 23 22 22 21 17 14 16 17 16 16 17 21 23 20 19 21 21 23 25 25 25 25 24 24 23
20 20 20 21 21 21 21 21 21 21 21 20 20 20 20 20 21 21 21 21 22 22 21 22 23 24 24 23 24 26 27 27 27 27 27 27 26 25 24 23 22 22 20 17 17 17 17 15 15 18 20 20 20 20 20 22 23 24 26 28 27 27 26
21 21 21 21 21 21 22 22 21 21 21 19 18 18 19 19 20 21 21 22 23 23 22 23 24 25 24 23 25 27 27 27 27 28 28 28 27 26 25 24 23 23 22 21 19 18 18 18 17 17 18 18 19 20 20 21 23 24 25 27 28 28 28
22 22 21 21 21 22 22 22 21 20 19 18 17 18 19 19 19 20 21 23 24 24 24 24 25 25 25 25 26 28 28 28 28 28 28 29 29 28 26 25 24 23 23 23 22 20 20 21 20 19 18 17 17 19 20 21 23 23 23 23 25 27 27
22 22 22 22 22 22 22 22 20 19 18 17 17 18 19 19 19 19 20 22 24 25 25 26 26 26 26 26 28 29 29 29 28 28 29 30 30 29 27 26 25 24 23 23 22 21 20 21 21 21 21 19 17 18 20 20 20 20 19 20 22 24 26
23 22 22 22 22 22 21 20 19 19 19 19 19 20 19 19 18 19 20 21 23 24 25 25 26 26 27 27 28 29 30 30 29 29 29 31 30 29 28 27 25 24 23 22 21 20 19 19 20 20 21 19 18 19 20 18 17 19 21 21 21 22 23
23 23 23 22 23 23 21 19 19 19 20 20 21 21 20 19 19 20 20 21 23 24 25 25 25 25 26 27 28 29 30 30 30 29 30 31 30 28 28 27 26 24 22 21 19 18 17 17 18 19 18 18 19 21 20 18 18 20 21 20 21 22 22
23 23 23 23 24 24 23 23 22 20 20 21 21 21 21 20 21 21 22 24 26 26 26 27 27 27 28 28 29 30 31 31 29 29 31 32 30 29 28 27 25 24 24 21 19 18 18 16 16 18 19 20 22 22 21 20 20 21 21 18 18 22 25
23 23 24 24 25 25 25 26 25 23 22 22 21 21 22 22 23 24 25 27 29 29 29 29 29 30 30 30 31 31 31 31 30 29 30 31 30 30 29 28 27 26 25 23 20 19 19 17 17 20 21 22 22 21 22 23 23 22 21 16 13 16 20
24 24 24 24 25 26 26 27 26 24 24 24 23 23 23 23 23 23 24 28 30 31 32 31 31 31 31 31 31 31 31 30 30 29 29 30 30 29 30 31 30 29 27 25 23 21 20 20 20 20 22 22 21 22 23 24 24 24 21 17 15 15 17
23 24 24 24 25 26 27 28 27 25 24 24 24 23 23 23 23 23 24 25 27 30 31 31 31 30 30 31 31 31 30 30 29 29 28 29 30 30 30 31 32 32 30 29 27 24 24 26 24 21 21 21 21 23 25 24 24 24 22 20 20 19 18
24 25 25 24 25 26 27 28 27 24 24 24 23 23 22 22 23 23 25 27 28 30 31 31 30 29 30 30 29 29 30 29 29 28 28 28 29 31 31 30 31 33 32 32 31 29 29 31 29 26 24 21 19 21 23 23 23 23 22 21 21 20 19
24 25 24 24 25 26 28 28 25 22 22 23 22 22 22 22 23 24 26 28 29 31 32 32 32 31 31 30 29 29 29 29 29 28 27 28 29 30 30 30 32 34 34 32 32 33 35 35 33 31 30 27 24 22 21 21 21 20 19 18 18 19 19
23 24 23 23 23 23 25 26 23 21 22 22 22 22 21 21 22 23 25 27 28 30 30 28 24 22 24 27 27 27 27 28 28 27 27 28 28 28 29 30 31 32 32 32 32 33 35 36 35 34 32 31 29 26 24 24 23 22 19 16 16 16 18
21 21 20 20 20 21 24 25 23 21 21 21 21 21 20 20 20 21 24 26 26 24 20 15 10 9 12 19 23 24 24 24 25 26 27 28 28 27 28 30 30 29 29 30 30 31 31 32 33 32 30 30 29 28 27 25 23 22 20 15 12 10 14
19 20 20 20 22 22 23 25 24 20 19 20 20 20 19 19 19 20 22 22 19 16 12 11 11 9 10 13 16 18 20 20 22 26 27 28 28 26 28 31 31 29 29 28 28 29 29 29 30 30 29 29 28 27 27 26 25 24 21 16 12 10 13
20 21 21 21 22 21 21 23 24 19 17 18 19 19 18 18 19 18 18 15 12 11 10 10 12 13 13 14 15 15 18 19 20 24 28 30 28 26 29 33 32 28 28 28 29 29 30 30 30 30 30 29 29 28 27 28 29 29 26 20 16 16 13
17 18 19 19 20 21 21 23 23 20 16 17 18 18 18 18 17 14 12 11 10 10 10 10 12 14 15 16 17 17 18 19 20 21 23 26 29 30 32 34 31 30 30 29 28 29 29 29 29 30 30 29 29 29 29 29 30 30 29 25 21 20 16
15 17 19 20 21 22 22 22 22 19 16 15 17 17 18 17 13 10 10 11 11 11 11 11 13 15 15 15 15 16 17 18 20 21 21 21 23 28 31 32 31 31 31 29 28 28 27 27 27 28 29 29 29 29 30 31 31 31 31 27 24 22 17
17 18 20 21 21 21 21 20 19 18 15 13 14 16 16 14 10 8 10 12 13 13 13 12 13 15 16 15 15 16 16 16 18 21 22 21 19 19 21 26 32 33 28 26 27 26 25 25 25 26 28 29 30 31 31 31 32 34 34 32 28 24 18
18 18 19 20 20 20 19 17 15 14 12 11 11 13 13 11 9 9 11 13 14 14 13 13 14 17 18 17 17 17 17 17 19 19 16 14 14 13 13 16 22 27 28 27 25 24 24 24 24 25 27 29 31 32 32 32 32 33 35 35 34 31 26
16 16 16 16 16 17 17 14 12 10 10 10 10 11 10 9 9 10 11 13 15 15 14 14 15 17 18 18 18 18 18 16 16 13 11 12 15 17 17 16 14 16 22 25 24 23 25 26 26 26 27 29 30 29 29 31 32 32 34 34 35 35 33
14 14 13 12 13 15 15 12 10 8 7 8 8 8 7 8 10 11 12 13 14 15 15 15 16 17 18 19 19 17 15 13 12 12 13 16 18 18 18 16 13 11 14 21 23 23 25 27 28 28 29 29 27 23 22 24 26 29 31 32 33 34 35
13 13 12 11 12 15 14 10 7 6 6 7 8 7 8 9 10 11 12 13 14 14 15 16 17 17 18 18 16 14 12 13 15 16 16 16 15 14 13 12 11 10 10 16 22 23 24 26 27 27 26 25 22 20 19 20 21 24 26 28 28 29 30
13 12 11 11 12 14 13 10 7 5 6 7 7 7 7 8 9 10 11 12 13 14 15 16 16 15 14 14 13 12 12 13 14 14 14 12 11 10 9 9 10 10 10 11 15 19 23 25 24 21 20 21 21 21 21 20 20 21 22 24 26 25 25
15 14 13 13 12 12 10 10 8 7 7 7 8 9 9 9 11 13 12 12 15 16 17 17 15 12 11 11 11 10 10 10 10 10 10 9 8 7 6 6 7 8 9 9 10 13 17 19 20 19 20 20 21 22 22 21 21 21 20 22 23 22 21
19 19 18 17 14 11 9 10 10 9 8 9 10 11 12 13 14 13 10 11 15 16 14 12 10 9 8 7 6 6 6 7 7 7 6 6 5 5 4 3 3 4 5 6 7 8 10 12 15 18 20 20 21 22 22 21 21 22 21 20 20 20 19
20 19 18 17 16 13 11 11 11 9 9 10 11 12 12 12 11 9 9 12 14 11 7 6 6 5 4 4 3 3 3 3 4 4 3 3 3 2 2 1 2 3 3 3 3 4 5 6 8 11 15 18 20 21 21 21 22 23 22 20 18 16 18
21 20 20 21 21 16 10 9 9 9 10 11 11 11 10 9 9 9 10 10 8 5 4 4 5 4 3 3 3 2 2 2 1 2 3 2 2 1 1 2 3 5 5 5 4 3 3 3 3 4 7 10 13 15 16 17 20 21 21 21 19 17 18
19 19 16 14 14 12 7 5 7 9 10 10 9 8 8 8 9 9 7 5 3 2 2 3 5 5 3 3 3 3 1 1 0 1 3 3 2 2 2 3 4 5 6 6 5 5 4 3 3 3 3 4 7 8 9 11 14 15 16 17 18 19 20
7 5 4 4 5 5 4 4 7 8 8 8 7 7 7 7 5 4 4 5 7 7 5 5 7 6 5 4 4 3 2 1 0 1 2 3 3 3 4 3 3 4 6 6 6 5 4 4 4 3 3 3 4 5 6 8 11 13 14 13 14 16 18
3 2 2 3 3 3 3 5 7 6 6 6 6 6 7 6 4 4 5 6 6 7 8 8 8 7 6 5 4 3 2 1 0 2 2 3 3 3 4 3 2 2 5 6 6 5 4 4 3 3 4 4 4 4 5 6 8 10 11 12 13 13 15
8 5 5 5 5 5 4 4 5 5 4 4 4 5 6 7 8 8 6 3 4 6 7 7 7 6 5 4 4 3 1 1 0 1 3 3 4 4 3 2 2 2 5 7 6 5 4 4 4 4 4 4 5 5 5 6 6 7 8 10 11 12 13
9 7 6 5 4 3 2 1 2 2 1 2 3 6 7 7 7 6 3 3 4 5 5 5 5 5 5 4 3 3 2 1 0 2 3 3 4 4 3 2 2 4 6 7 6 5 4 4 4 4 4 5 5 6 6 6 6 6 7 8 10 11 12
Wind_Direction
254 257 259 262 265 269 270 272 275 279 282 282 279 275 272 268 266 263 262 261 259 257 256 257 259 260 261 261 259 258 257 256 256 256 255 254 255 255 253 254 257 263 271 267 267 276 280 282 291 295 295 298 297 294 293 294 293 293 294 296 296 291 285
255 256 258 262 266 268 269 270 273 276 276 273 270 268 267 264 262 260 259 259 258 257 257 257 259 260 260 260 260 259 257 256 254 253 253 252 251 252 253 253 255 261 269 271 267 272 278 279 282 285 286 290 292 293 293 293 290 289 290 293 294 292 286
252 253 257 262 265 266 267 269 271 271 270 266 261 259 259 258 257 257 258 257 256 256 257 257 257 259 259 259 259 258 257 255 253 252 252 252 251 251 254 253 254 257 262 269 270 269 271 273 274 277 280 282 286 288 290 291 290 291 290 288 289 290 289
250 251 256 259 261 263 266 269 269 269 267 263 258 255 255 255 256 256 257 257 258 258 258 257 257 258 258 258 257 257 256 253 251 251 250 251 252 251 252 253 252 253 257 263 267 266 263 265 266 268 274 280 283 283 284 286 289 291 290 287 287 289 289
249 251 254 256 258 262 265 267 268 266 264 259 252 249 251 253 253 254 255 256 257 258 257 255 256 257 256 255 254 254 254 252 250 249 248 249 251 250 249 250 251 253 256 257 260 262 262 263 265 265 268 272 277 280 282 284 285 287 289 289 287 287 286
249 252 253 254 258 261 264 266 264 259 255 252 248 247 248 250 252 253 255 256 257 257 256 255 255 257 255 253 252 252 252 251 250 248 247 246 247 247 247 248 249 251 253 255 257 259 261 261 261 263 265 264 268 275 279 281 283 284 285 288 289 288 287
249 252 253 255 259 263 265 263 257 250 247 246 247 246 247 249 251 253 254 256 257 257 256 256 256 257 255 252 251 252 252 251 249 247 246 245 245 245 245 246 247 248 249 253 256 256 256 258 258 259 260 261 263 267 269 273 279 283 283 284 287 289 289
250 252 254 257 261 263 262 257 250 246 244 245 246 245 245 247 248 251 254 255 257 257 256 256 257 258 257 255 254 254 253 251 249 246 246 246 244 243 242 242 243 244 245 248 252 254 253 256 258 257 258 259 259 258 259 261 267 275 278 280 282 284 287
250 252 256 260 263 262 259 252 246 244 244 246 247 245 244 245 246 249 253 254 257 259 258 258 258 259 260 260 261 260 259 256 251 246 246 246 242 238 237 238 239 239 239 240 245 250 252 254 254 253 254 254 250 251 256 258 260 264 268 275 280 280 279
250 253 259 262 263 262 258 252 248 245 243 244 247 248 250 252 253 255 258 260 262 262 262 261 261 261 262 264 264 264 263 260 251 245 247 249 245 238 234 232 233 234 234 235 238 242 244 248 251 249 249 251 251 253 257 258 256 258 263 269 276 278 277
252 256 260 262 263 262 258 254 250 249 248 246 245 247 251 255 259 261 263 263 264 265 265 264 263 263 263 262 262 262 262 260 253 244 244 246 245 242 239 234 230 230 230 229 232 237 237 239 247 249 247 249 253 255 255 254 253 255 259 258 258 271 276
255 259 262 263 263 261 258 256 254 252 252 251 248 246 247 249 252 254 257 260 263 266 268 266 264 264 263 261 261 260 259 259 256 250 244 243 243 242 241 238 235 234 232 228 227 231 233 234 239 245 246 246 250 253 252 252 250 249 251 250 247 252 261
257 261 263 263 261 259 259 258 257 255 254 253 252 249 246 247 248 248 250 254 260 264 266 265 264 263 263 262 261 259 256 255 257 256 250 246 244 242 240 238 237 237 237 234 230 227 231 235 235 237 240 243 247 250 248 245 245 246 246 247 246 247 255
260 263 263 261 260 260 260 261 261 258 255 253 252 250 248 248 249 250 252 254 257 260 262 263 262 260 260 260 257 253 252 251 253 255 253 249 245 244 243 241 238 237 236 235 231 230 237 242 239 237 239 241 243 246 245 242 242 243 242 243 244 248 257
262 264 263 261 261 261 262 263 262 258 255 254 253 252 251 250 250 251 254 256 258 259 262 264 264 261 259 257 254 252 251 250 249 249 248 248 248 246 245 244 243 241 239 237 234 233 240 246 245 242 243 244 244 247 249 247 244 243 247 253 256 259 264
261 262 263 263 262 261 263 264 261 257 255 255 255 254 253 253 252 253 255 258 260 263 265 267 269 269 264 257 252 251 252 250 248 244 241 244 247 248 248 248 249 247 243 242 240 238 242 247 248 246 246 246 246 249 254 252 250 254 260 269 269 265 267
259 261 261 261 259 259 262 265 263 258 257 256 255 254 254 254 253 254 257 258 261 264 269 275 285 299 289 268 256 254 254 248 241 239 240 241 243 244 246 251 256 253 247 244 243 243 244 247 249 247 243 242 241 243 248 247 247 251 254 258 261 261 265
259 261 259 259 259 260 263 267 267 262 257 256 255 253 253 254 254 256 258 258 259 262 269 280 287 293 299 289 274 265 262 252 239 235 238 240 241 239 241 250 255 253 250 249 247 246 246 246 246 244 240 236 234 234 236 236 237 243 245 243 244 250 260
260 262 261 262 263 262 262 266 269 264 256 256 257 254 254 255 255 257 259 260 262 264 266 277 284 281 280 287 287 276 269 264 251 240 236 236 236 235 241 251 253 249 250 251 247 246 247 244 244 243 241 239 236 234 234 232 232 236 236 234 237 241 247
256 257 260 262 264 265 264 265 267 265 257 256 258 256 254 255 253 253 259 264 267 271 272 277 284 285 282 283 284 279 272 270 268 260 249 238 230 231 245 255 253 247 249 249 248 248 248 245 244 243 242 242 239 237 236 234 232 231 229 227 229 232 232
249 254 261 265 268 270 269 266 266 265 261 257 258 258 257 257 255 255 263 270 273 274 274 275 280 285 287 285 286 286 281 277 275 276 274 262 245 242 253 258 252 249 249 246 246 249 248 246 245 243 241 240 239 236 234 232 232 232 231 227 224 226 227
252 258 265 270 272 272 271 267 265 265 262 253 253 259 261 259 259 261 263 267 269 268 267 271 276 280 282 284 287 288 286 282 279 277 279 280 275 268 266 258 250 247 244 240 241 242 242 240 240 240 240 239 237 236 233 231 231 232 234 235 233 232 232
255 260 266 271 274 274 271 265 263 263 259 250 252 259 261 260 264 268 264 262 265 267 268 273 276 276 278 280 281 281 280 280 281 279 278 282 286 290 293 277 255 243 236 234 234 232 232 235 236 235 238 239 237 237 234 232 231 231 233 236 238 240 242
253 256 261 268 272 273 269 265 265 260 250 249 257 259 261 267 273 273 268 266 267 269 272 275 275 273 274 274 274 275 277 277 276 277 284 291 292 293 297 299 290 261 237 227 224 222 226 234 235 234 237 239 241 243 240 235 234 233 232 233 236 239 242
248 250 253 258 263 268 270 270 270 258 234 233 249 261 274 283 282 277 272 267 268 273 275 274 272 270 270 270 269 269 271 274 279 285 291 291 289 289 288 289 299 292 246 222 217 220 225 233 237 238 241 243 243 245 244 239 236 235 232 231 232 235 238
240 244 248 250 257 266 273 279 276 252 220 221 243 270 284 282 279 277 271 269 271 273 273 271 270 269 267 265 263 264 269 277 282 284 284 283 280 281 281 279 286 290 256 226 222 223 228 235 241 242 243 242 238 235 235 233 231 230 228 225 225 228 233
235 235 236 240 251 262 274 287 283 245 223 231 252 279 286 278 279 278 273 275 276 273 273 277 276 268 257 252 255 264 274 277 274 268 267 269 269 266 265 266 271 274 266 248 236 231 235 241 244 241 236 233 228 226 226 224 220 218 218 217 216 219 225
230 230 231 235 245 255 271 281 270 243 236 252 270 280 278 275 278 277 273 278 281 280 283 284 274 254 240 242 251 260 263 259 257 255 255 256 260 263 263 261 258 256 260 265 257 246 243 242 238 231 225 221 220 221 221 218 215 215 215 212 210 212 219
235 238 239 238 238 243 253 259 255 249 256 270 277 275 272 272 273 271 273 282 283 280 275 263 242 227 228 236 243 247 248 247 248 249 249 249 256 266 270 271 266 258 263 272 271 262 254 243 231 224 219 214 213 216 218 215 213 214 215 213 209 211 218
243 246 244 243 246 250 245 243 249 259 269 275 277 275 274 276 274 272 277 281 275 262 238 212 200 202 218 227 226 233 246 256 258 258 260 260 263 276 293 328 2 3 345 321 303 289 275 258 236 221 213 209 209 213 217 217 217 217 217 215 213 215 223
243 247 248 250 254 253 241 236 252 269 276 278 281 280 279 282 285 285 283 278 264 231 201 202 198 190 199 211 197 187 232 261 282 303 299 294 284 297 348 14 22 18 7 354 346 345 329 304 279 242 220 212 212 214 213 213 218 220 218 217 218 219 225
244 248 247 243 238 228 213 227 260 274 279 281 284 285 286 292 297 292 275 257 260 270 247 215 195 175 167 176 169 159 185 241 300 326 316 317 312 310 347 4 12 17 10 357 350 355 358 352 340 312 274 243 235 234 227 221 224 226 224 222 221 220 224
240 239 209 172 180 194 211 254 272 279 283 284 287 290 293 299 309 301 257 251 266 265 230 189 174 161 150 151 156 156 157 146 46 333 322 328 321 316 327 339 358 21 8 349 342 347 347 351 353 339 321 299 271 263 259 248 242 242 241 239 233 229 229
193 152 181 198 226 265 285 290 290 288 283 282 290 299 297 283 261 267 279 271 250 219 191 175 163 154 150 154 158 156 151 137 79 325 325 335 329 322 324 321 331 9 351 334 331 338 337 336 338 330 321 316 303 287 277 266 258 253 249 247 245 241 237
226 239 246 248 260 271 282 290 283 270 272 293 304 305 297 268 248 256 273 260 200 185 177 171 165 162 161 166 168 162 152 144 203 319 329 339 343 343 338 324 307 320 322 318 321 329 332 329 324 319 314 309 301 293 283 275 270 266 259 256 255 254 249
237 246 246 243 231 213 209 298 282 242 188 44 341 308 291 262 234 223 202 168 166 170 169 169 171 171 170 172 172 164 147 135 330 334 343 352 355 356 357 351 327 312 311 313 318 323 322 319 318 316 314 310 302 293 287 280 275 272 269 267 267 267 265